Regional Weather Roundup
Issued by NWS Green Bay, WI

Home | Current Version | Previous Version | Graphics & Text | Print | Product List | Glossary Off
Versions: 1 2 3 4 5 6 7 8 9 10 11 12 13 14 15 16 17 18 19 20 21 22 23 24 25 26 27 28 29 30 31 32 33 34 35 36 37 38 39 40 41 42 43 44 45 46 47 48 49 50

000
ASUS43 KGRB 240411
RWRGRB

NORTH-CENTRAL AND NORTHEAST WISCONSIN REGIONAL WEATHER ROUNDUP
NATIONAL WEATHER SERVICE GREEN BAY WI
1100 PM CDT SAT MAY 23 2015

WIZ005-009-010>012-018-019-240500-
NORTH CENTRAL WISCONSIN

CITY           SKY/WX    TMP DP  RH WIND       PRES   REMARKS
IRONWOOD       PTCLDY    52  45  76 CALM      30.14F
MANITOWISH WTR CLOUDY    54  46  73 CALM      30.19S
ARBOR VITAE    CLOUDY    59  45  59 CALM      30.19F
EAGLE RIVER    CLOUDY    61  38  42 SW5       30.19R
LAND O LAKES   MOCLDY    57  42  55 CALM      30.20S
RHINELANDER    CLOUDY    59  43  55 CALM      30.20S
PHILLIPS       CLOUDY    57  48  71 CALM      30.18S
ANTIGO         CLOUDY    59  49  69 CALM      30.20S
TOMAHAWK       CLOUDY    56  45  66 CALM      30.20S
MERRILL        CLOUDY    58  50  74 CALM      30.20S
$$

WIZ013-073-240500-
NORTHEAST WISCONSIN

CITY           SKY/WX    TMP DP  RH WIND       PRES   REMARKS
IRON MOUNTAIN  MOCLDY    61  41  47 CALM      30.16S
MARINETTE      MOCLDY    64  39  39 SW7       30.17S
OCONTO         MOCLDY    56  49  76 CALM      30.17S
$$

WIZ017-030-035>037-045-240500-
CENTRAL WISCONSIN

CITY           SKY/WX    TMP DP  RH WIND       PRES   REMARKS
MEDFORD        RAIN      57  50  78 CALM      30.20R
WAUSAU         CLOUDY    61  46  57 CALM      30.17S
MOSINEE        CLOUDY    63  45  51 CALM      30.19S
MARSHFIELD     CLOUDY    63  45  51 NE3       30.18R
WISC RAPIDS    MOCLDY    63  44  50 CALM      30.19R
STEVENS POINT  MOCLDY    56  47  70 CALM      30.18S
WAUPACA        MOCLDY    61  47  60 E3        30.18S
SHAWANO        MOCLDY    65  43  44 CALM      30.18S
CLINTONVILLE   MOCLDY    64  43  45 S5        30.18S
$$

WIZ038-039-048-051-240500-
FOX VALLEY

CITY           SKY/WX    TMP DP  RH WIND       PRES   REMARKS
NWS GREEN BAY  PTCLDY    64  42  44 S7        30.19R
APPLETON       MOCLDY    63  43  48 S8        30.19S
OSHKOSH        PTCLDY    57  44  62 S8        30.18S
FOND DU LAC    PTCLDY    59  43  55 S5        30.19S
$$

WIZ022-050-052-240500-
EAST CENTRAL WISCONSIN

CITY           SKY/WX    TMP DP  RH WIND       PRES   REMARKS
STURGEON BAY   PTCLDY    61  39  44 S10       30.21S
MANITOWOC      CLEAR     52  43  71 CALM      30.21S
SHEBOYGAN      CLEAR     55  39  54 S3        30.21R
$$

LMZ563-521-522-541>543-240500-
LAKESHORE

STATION/POSITION TIME  TEMP    WIND        PRES    VSBY  WAVE
                       AIR SEA DIR/SP/G                  HT/PER
                 (UTC) (F)     (DEG/KT/KT) (MB)    (MI)  (FT/S)
SHEBOYGAN LKSHOR 0400   57     210/  5/  6 1023.3R
KEWAUNEE LKSHORE 0300   53     180/  8/ 10 1021.4S
NORTHPORT PIER   0300   63     190/  4/ 11 1021.3S
N MID LAKE BUOY  0350   42 36  210/ 10/ 12 1022.1S         2/ 4
SISTER BAY LKSHO 0317   63     190/ 17/ 20   N/A
CHAMBERS ISLAND  0300   65     170/  6/ 12 1021.7R
MENOMINEE LKSHOR 0300   65     180/  8/ 10 1022.2R
$$


USA.gov is the U.S. government's official web portal to all federal, state and local government web resources and services.